Location: ??????
(55.7522°N, 37.6156°E)
Time: 18:04:21
(UTC+00:00)

Cosmos 2084 - Pass Details

Date: 14 June 2025
Orbit: 515 x 595 km, 62.8° (Epoch: 12 July)

Event Time Altitude Azimuth Distance (km) Brightness Sun altitude
Rises 23:12:03 0° 305° (NW) 2,708 7.0 -8.0°
Reaches altitude 10° 23:14:19 10° 309° (NW) 1,801 6.1 -7.9°
Maximum altitude 23:18:19 62° 31° (NNE) 602 3.9 -7.6°
Drops below altitude 10° 23:22:13 10° 112° (ESE) 1,758 6.0 -7.4°
Sets 23:24:24 0° 116° (ESE) 2,638 6.8 -7.3°
